| time (UTC) | temp F | wind direction | speed MPH | gust MPH | rain 1hr in | rain 24hr in | rain mn in | humidity % | barometer mb |
| 20260505121525 | 45 | 359 | 0.0 | 0.0 | 0.00 | 0.00 | 0.00 | 86 | 1008.2 |
| 20260505120027 | 46 | 359 | 0.0 | 0.0 | 0.00 | 0.00 | 0.00 | 86 | 1008.1 |
| 20260505114523 | 46 | 359 | 0.0 | 0.0 | 0.00 | 0.00 | 0.00 | 86 | 1008.0 |
| 20260505113005 | 46 | 359 | 0.0 | 0.0 | 0.00 | 0.00 | 0.00 | 85 | 1007.9 |
| 20260505111506 | 47 | 359 | 0.0 | 0.0 | 0.00 | 0.00 | 0.00 | 84 | 1007.7 |
| 20260505101534 | 50 | 359 | 0.0 | 0.0 | 0.00 | 0.00 | 0.00 | 81 | 1007.2 |
| 20260505100010 | 50 | 359 | 0.0 | 0.0 | 0.00 | 0.00 | 0.00 | 81 | 1007.2 |
| 20260505094510 | 50 | 359 | 0.0 | 0.0 | 0.00 | 0.00 | 0.00 | 80 | 1007.1 |
| 20260505093056 | 51 | 359 | 0.0 | 0.0 | 0.00 | 0.00 | 0.00 | 80 | 1007.0 |
| 20260505091552 | 51 | 359 | 0.0 | 0.0 | 0.00 | 0.00 | 0.00 | 80 | 1007.0 |
| 20260505090034 | 51 | 359 | 0.0 | 0.0 | 0.00 | 0.00 | 0.00 | 79 | 1006.9 |
| 20260505084535 | 52 | 359 | 0.0 | 0.0 | 0.00 | 0.00 | 0.00 | 78 | 1006.9 |
| 20260505083016 | 52 | 359 | 0.0 | 0.0 | 0.00 | 0.00 | 0.00 | 79 | 1007.0 |
| 20260505081518 | 52 | 359 | 0.0 | 0.0 | 0.00 | 0.00 | 0.00 | 80 | 1006.8 |
| 20260505080058 | 51 | 359 | 0.0 | 0.0 | 0.00 | 0.00 | 0.00 | 79 | 1006.7 |
| 20260505074559 | 51 | 359 | 0.0 | 0.0 | 0.00 | 0.00 | 0.00 | 78 | 1006.6 |
| 20260505073049 | 51 | 359 | 0.0 | 0.0 | 0.00 | 0.00 | 0.00 | 80 | 1006.5 |
| 20260505071545 | 51 | 359 | 0.0 | 0.0 | 0.00 | 0.00 | 0.00 | 80 | 1006.5 |
| 20260505070059 | 51 | 359 | 0.0 | 0.0 | 0.00 | 0.00 | 0.00 | 79 | 1006.3 |
| 20260505064553 | 52 | 359 | 0.0 | 0.0 | 0.00 | 0.00 | 0.00 | 78 | 1006.1 |
| 20260505063044 | 52 | 354 | 0.0 | 0.0 | 0.00 | 0.00 | 0.00 | 78 | 1005.9 |
| 20260505061609 | 53 | 359 | 0.0 | 0.0 | 0.00 | 0.00 | 0.00 | 77 | 1005.9 |
| 20260505060050 | 52 | 359 | 0.0 | 0.0 | 0.00 | 0.00 | 0.00 | 78 | 1005.7 |
| 20260505054548 | 53 | 359 | 0.0 | 0.0 | 0.00 | 0.00 | 0.00 | 77 | 1005.6 |
| 20260505053026 | 54 | 354 | 0.0 | 0.0 | 0.00 | 0.00 | 0.00 | 74 | 1005.6 |
| 20260505051524 | 54 | 354 | 0.0 | 0.0 | 0.00 | 0.00 | 0.00 | 75 | 1005.6 |
| 20260505041555 | 59 | 359 | 0.0 | 0.0 | 0.00 | 0.00 | 0.00 | 68 | 1005.4 |
| 20260505040039 | 60 | 354 | 0.0 | 0.0 | 0.00 | 0.00 | 0.00 | 65 | 1005.2 |
| 20260505034538 | 62 | 350 | 0.0 | 0.0 | 0.00 | 0.00 | 0.00 | 62 | 1005.0 |
| 20260505033018 | 65 | 359 | 0.0 | 0.0 | 0.00 | 0.00 | 0.00 | 58 | 1004.9 |
| 20260505031517 | 67 | 354 | 0.0 | 0.0 | 0.00 | 0.00 | 0.00 | 54 | 1004.7 |
| 20260505030019 | 69 | 359 | 0.0 | 0.0 | 0.00 | 0.00 | 0.00 | 50 | 1004.7 |
| 20260505024517 | 73 | 354 | 0.0 | 0.0 | 0.00 | 0.00 | 0.00 | 47 | 1004.5 |
| 20260505023018 | 76 | 359 | 0.0 | 0.0 | 0.00 | 0.00 | 0.00 | 42 | 1004.6 |
| 20260505021515 | 77 | 354 | 0.0 | 0.0 | 0.00 | 0.00 | 0.00 | 39 | 1004.6 |
| 20260505020014 | 78 | 354 | 0.0 | 0.0 | 0.00 | 0.00 | 0.00 | 40 | 1004.7 |
| 20260505014516 | 79 | 354 | 0.0 | 0.0 | 0.00 | 0.00 | 0.00 | 36 | 1004.7 |
| 20260505013052 | 79 | 350 | 0.0 | 0.0 | 0.00 | 0.00 | 0.00 | 33 | 1005.0 |
| 20260505011550 | 78 | 354 | 0.0 | 0.0 | 0.00 | 0.00 | 0.00 | 34 | 1005.1 |
| 20260505010032 | 78 | 359 | 0.0 | 0.0 | 0.00 | 0.00 | 0.00 | 35 | 1005.1 |
| 20260505004531 | 78 | 349 | 0.0 | 0.0 | 0.00 | 0.00 | 0.00 | 34 | 1005.3 |
| 20260505003012 | 78 | 359 | 0.0 | 1.0 | 0.00 | 0.00 | 0.00 | 30 | 1005.3 |
| 20260505001512 | 78 | 359 | 0.0 | 6.0 | 0.00 | 0.00 | 0.00 | 31 | 1005.4 |
| 20260505000108 | 79 | 359 | 1.0 | 10.0 | 0.00 | 0.00 | 0.00 | 29 | 1005.4 |
| 20260504234612 | 79 | 359 | 0.0 | 6.0 | 0.00 | 0.00 | 0.00 | 29 | 1005.4 |
| 20260504233059 | 79 | 359 | 0.0 | 6.0 | 0.00 | 0.00 | 0.00 | 28 | 1005.4 |
| 20260504231556 | 80 | 321 | 0.0 | 1.0 | 0.00 | 0.00 | 0.00 | 25 | 1005.5 |
| 20260504230055 | 80 | 324 | 0.0 | 6.0 | 0.00 | 0.00 | 0.00 | 25 | 1005.7 |
| 20260504224554 | 80 | 303 | 0.0 | 8.0 | 0.00 | 0.00 | 0.00 | 24 | 1005.7 |
| 20260504223054 | 80 | 322 | 0.0 | 11.0 | 0.00 | 0.00 | 0.00 | 24 | 1005.9 |
| 20260504221549 | 79 | 359 | 3.0 | 10.0 | 0.00 | 0.00 | 0.00 | 25 | 1006.0 |
| 20260504220045 | 77 | 359 | 0.0 | 11.0 | 0.00 | 0.00 | 0.00 | 33 | 1006.0 |
| 20260504214536 | 77 | 12 | 1.0 | 10.0 | 0.00 | 0.00 | 0.00 | 37 | 1006.3 |
| 20260504213039 | 77 | 332 | 2.0 | 9.0 | 0.00 | 0.00 | 0.00 | 36 | 1006.4 |
| 20260504211536 | 77 | 330 | 4.0 | 12.0 | 0.00 | 0.00 | 0.00 | 37 | 1006.6 |
| 20260504210028 | 78 | 349 | 3.0 | 11.0 | 0.00 | 0.00 | 0.00 | 38 | 1006.6 |
| 20260504204536 | 79 | 316 | 0.0 | 3.0 | 0.00 | 0.00 | 0.00 | 34 | 1006.7 |
| 20260504203022 | 78 | 359 | 0.0 | 2.0 | 0.00 | 0.00 | 0.00 | 35 | 1006.9 |
| 20260504201519 | 78 | 359 | 0.0 | 4.0 | 0.00 | 0.00 | 0.00 | 34 | 1007.0 |
| 20260504200006 | 77 | 260 | 0.0 | 4.0 | 0.00 | 0.00 | 0.00 | 36 | 1007.2 |
| 20260504194505 | 76 | 255 | 0.0 | 1.0 | 0.00 | 0.00 | 0.00 | 37 | 1007.3 |
| 20260504193114 | 75 | 258 | 0.0 | 2.0 | 0.00 | 0.00 | 0.00 | 37 | 1007.4 |
| 20260504193002 | 75 | 359 | 0.0 | 2.0 | 0.00 | 0.00 | 0.00 | 37 | 1007.5 |
| 20260504191557 | 74 | 359 | 0.0 | 0.0 | 0.00 | 0.00 | 0.00 | 39 | 1007.5 |
| 20260504190106 | 73 | 359 | 0.0 | 4.0 | 0.00 | 0.00 | 0.00 | 39 | 1007.6 |
| 20260504184552 | 73 | 359 | 0.0 | 0.0 | 0.00 | 0.00 | 0.00 | 40 | 1007.6 |
| 20260504183058 | 72 | 359 | 0.0 | 0.0 | 0.00 | 0.00 | 0.00 | 41 | 1007.8 |
| 20260504181547 | 72 | 359 | 0.0 | 0.0 | 0.00 | 0.00 | 0.00 | 43 | 1007.8 |
| 20260504180028 | 71 | 359 | 0.0 | 0.0 | 0.00 | 0.00 | 0.00 | 41 | 1007.9 |
| 20260504174527 | 71 | 359 | 0.0 | 0.0 | 0.00 | 0.00 | 0.00 | 42 | 1007.9 |
| 20260504173009 | 70 | 359 | 0.0 | 1.0 | 0.00 | 0.00 | 0.00 | 43 | 1007.8 |
| 20260504171508 | 70 | 359 | 0.0 | 1.0 | 0.00 | 0.00 | 0.00 | 44 | 1007.9 |